437P/Lemmon-PanSTARRS (2022)

Japanese version
Home page
Updated on June 19, 2022

---------------------------------------------------------------------

* Profile

Designation 437P/2021 V3
Discovery Date November 1, 2021
Magnitude 21.9 mag
Discoverer Pan-STARRS 1 telescope (Haleakala)

* Orbital Elements

Epoch 2022 Jan. 21.0 TT = JDT 2459600.5
T 2022 Aug. 18.38309 TT                                 Rudenko
q   3.4002627            (2000.0)            P               Q
n   0.10127288     Peri.  206.70283     -0.04401926     -0.99730292
a   4.5583458      Node   245.86885     +0.92771162     -0.01899309
e   0.2540578      Incl.    3.68974     +0.37069322     -0.07089534
P   9.73
From 93 observations 2004 Mar. 17-2021 Dec. 7, mean residual 0".4.

* Magnitudes Graph

        m1 = 13.0 + 5 log d + 10.0 log r

---------------------------------------------------------------------

The orbital elements are published on M.P.E.C. 2021-Y10.
The magnitudes graphs are made with Comet for Windows.

---------------------------------------------------------------------

Copyright(C) Seiichi Yoshida (comet@aerith.net). All rights reserved.